Orbital Elements at Epoch 2459200.5 (2020-Dec-17.0) TDB
Reference: JPL 25 (heliocentric ecliptic J2000)
Element | Value | Uncertainty (1-sigma) | Units |
e | .1819223103609428 | 5.9975e-08 | |
a | 2.656349071034731 | 1.7556e-08 | au |
q | 2.173099910906948 | 1.627e-07 | au |
i | 14.47939615241621 | 5.9998e-06 | deg |
node | 355.6578186335082 | 1.6988e-05 | deg |
peri | .6646400131213962 | 2.0509e-05 | deg |
M | 278.252942136647 | 1.332e-05 | deg |
tp | 2459559.583768880829 (2021-Dec-11.08376888) | 6.0134e-05 | TDB |
period | 1581.343233333047 4.33 | 1.5676e-05 4.292e-08 | d yr |
n | .2276545612689135 | 2.2568e-09 | deg/d |
Q | 3.139598231162513 | 2.0749e-08 | au |
|
| | Orbit Determination Parameters
Additional Information
|